CST,Max TemperatureF,Mean TemperatureF,Min TemperatureF,Max Dew PointF,MeanDew PointF,Min DewpointF,Max Humidity, Mean Humidity, Min Humidity, Max Sea Level PressureIn, Mean Sea Level PressureIn, Min Sea Level PressureIn, Max VisibilityMiles, Mean VisibilityMiles, Min VisibilityMiles, Max Wind SpeedMPH, Mean Wind SpeedMPH, Max Gust SpeedMPH,PrecipitationIn, CloudCover, Events, WindDirDegrees
2013-11-1,42,40,38,40,38,36,99,93,79,29.74,29.51,29.26,10,7,2,15,8,25,0.01,8,Rain,283
2013-11-2,39,32,26,36,33,26,99,89,78,30.14,29.96,29.74,10,10,2,7,4,,0.00,7,Rain,303
2013-11-3,45,34,22,36,30,22,100,84,58,30.27,30.20,30.14,10,7,0,15,4,22,0.00,4,Fog,137
2013-11-4,47,42,38,43,37,33,97,79,63,30.16,30.07,29.98,10,9,3,16,11,25,0.01,5,Rain,172
2013-11-5,47,38,28,42,36,28,100,92,62,30.25,30.12,29.86,10,6,0,20,3,17,0.04,6,Fog-Rain,43
2013-11-6,38,32,27,38,29,22,99,81,58,30.12,29.93,29.76,10,9,2,14,10,21,0.01,5,Rain,322
2013-11-7,35,27,19,25,22,19,96,79,51,30.19,30.15,30.13,10,9,5,12,4,20,0.00,3,Snow,277
2013-11-8,38,30,21,33,27,21,99,86,68,30.23,30.08,29.73,10,6,0,14,4,22,0.05,6,Fog-Rain,159
2013-11-9,42,38,35,38,32,24,92,76,60,30.02,29.79,29.64,10,10,10,24,11,33,0.00,8,Rain,254
2013-11-10,42,38,34,31,26,23,84,63,49,30.28,30.17,30.03,10,10,10,17,10,26,0.00,6,Rain,275
2013-11-11,37,28,20,32,16,5,97,64,40,30.55,30.27,30.04,10,10,2,18,9,28,0.00,5,Rain,325
2013-11-12,24,18,13,11,9,6,82,64,47,30.67,30.59,30.47,10,10,10,13,6,18,0.00,0,,275
2013-11-13,43,28,14,25,16,9,84,60,44,30.47,30.16,29.93,10,10,10,22,10,31,0.00,0,,221
2013-11-14,45,37,28,35,24,16,93,64,47,29.92,29.85,29.81,10,10,10,13,7,20,0.00,2,Rain,222
2013-11-15,50,36,21,34,29,21,99,80,47,29.89,29.84,29.82,10,9,4,9,2,,0.00,0,,197
2013-11-16,53,44,35,52,41,31,99,92,77,29.82,29.58,29.37,10,6,1,17,9,25,0.04,7,Rain-Thunderstorm,163
2013-11-17,51,42,34,51,42,27,100,91,72,29.60,29.37,29.20,10,6,0,22,7,39,0.00,7,Fog-Rain,257
2013-11-18,33,28,23,27,19,17,80,69,59,30.22,29.95,29.62,10,10,10,24,14,34,0.00,7,,289
2013-11-19,34,23,12,26,19,11,95,76,50,30.33,30.25,30.16,10,10,10,13,4,20,0.00,1,,140
2013-11-20,36,33,30,31,27,24,99,80,62,30.17,30.12,30.07,10,8,2,15,9,20,0.02,8,Rain-Snow,150
2013-11-21,35,32,29,34,32,26,100,96,85,30.31,30.17,30.08,10,3,0,12,3,17,0.00,8,Fog-Rain,317
2013-11-22,29,24,20,26,16,9,92,69,43,30.46,30.40,30.30,10,9,2,12,9,22,0.00,4,Snow,295
2013-11-23,20,13,6,11,0,-5,73,60,45,30.66,30.59,30.40,10,10,10,17,11,28,0.00,3,,307
2013-11-24,22,10,-1,6,0,-5,85,59,38,30.64,30.42,30.08,10,10,10,22,7,28,0.00,1,,218
2013-11-25,32,27,22,23,17,5,80,65,44,30.06,29.94,29.90,10,10,10,18,13,29,0.00,7,,233
2013-11-26,32,20,9,22,8,-1,79,61,48,30.21,30.07,29.94,10,9,2,17,9,24,0.00,5,Snow,306
2013-11-27,23,15,7,16,8,2,93,72,51,30.25,30.19,30.15,10,9,2,10,4,16,0.00,3,Snow,303
2013-11-28,22,12,2,16,12,0,94,81,62,30.47,30.24,30.10,10,9,2,9,4,,0.00,6,Snow,283
2013-11-29,25,10,-4,16,7,-8,91,78,64,30.57,30.46,30.26,10,10,5,9,2,16,0.00,0,,160
2013-11-30,35,29,23,25,22,15,84,74,64,30.25,30.08,30.00,10,10,10,9,5,,0.00,4,,215